AT170 Weather Reports


time (UTC)temp
F
wind
direction
speed
knots
gust
knots
rain 1hr
in
rain 24hr
in
rain mn
in
humidity
%
barometer
mb
20260503203004 59 290 0.0 0.0 0.00 0.02 0.02 65 1010.4
20260503193004 60 290 0.0 2.6 0.00 0.02 0.02 63 1009.6
20260503190004 61 290 0.0 2.6 0.00 0.02 0.02 65 1009.3
20260503183004 62 290 0.0 2.6 0.00 0.02 0.02 64 1009.1
20260503180005 63 290 0.9 2.6 0.00 0.02 0.02 63 1009.1
20260503173004 64 290 0.0 6.1 0.00 0.02 0.02 62 1009.1
20260503053004 54 273 0.0 0.0 0.00 0.37 0.00 90 1011.8
20260503050005 53 273 0.0 0.0 0.00 0.37 0.00 90 1011.5
20260503043004 53 273 0.0 0.0 0.00 0.37 0.00 90 1011.6
20260503040006 53 273 0.0 0.0 0.00 0.37 0.00 90 1011.5
20260503033005 54 273 0.0 0.0 0.00 0.37 0.00 90 1011.8
20260503030006 54 273 0.0 0.0 0.00 0.37 0.00 90 1012.0
20260503023005 54 273 0.0 0.0 0.00 0.37 0.00 90 1012.2
20260503020004 55 273 0.0 0.0 0.00 0.37 0.00 89 1012.0
20260503010004 56 273 0.0 0.0 0.00 0.37 0.00 89 1012.5
20260503003004 56 273 0.0 0.0 0.00 0.37 0.00 88 1012.8
20260503000004 57 273 0.0 0.0 0.00 0.37 0.00 87 1013.1
20260502233005 58 273 0.0 0.0 0.00 0.37 0.00 86 1013.1
20260502230004 59 273 0.0 0.0 0.00 0.37 0.00 84 1013.1
20260502213004 58 273 0.0 0.0 0.00 0.37 0.37 88 1013.4
20260502210004 57 273 0.0 0.0 0.00 0.37 0.37 88 1013.2